Location: ???????
(33.3387°N, 35.6439°E)
Time: 19:26:23
(UTC+00:00)

Daily predictions for brighter satellites

Satellite Brightness Start Highest point End
(mag) Time Altitude Azimuth Time Altitude Azimuth Time Altitude Azimuth
Milstar 3 4.4 16:57:48 10° WSW 17:07:24 70° S 17:26:47 10° E
SL-16 R/B 2.3 17:08:50 10° SSW 17:14:30 87° WNW 17:20:12 10° NNE
EXPRESS MD2 4.4 17:14:06 10° WNW 17:16:57 36° SW 17:21:56 10° SSE
CZ-2C R/B 2.8 17:12:03 10° NNE 17:17:17 53° E 17:22:23 10° S
Cosmos 1356 Rocket 3.6 17:14:15 10° N 17:18:25 53° E 17:22:28 10° SSE
Ariane Rocket 3.0 17:15:19 10° SSE 17:20:24 78° ENE 17:25:30 10° N
FALCON 9 R/B 0.4 17:17:41 10° W 17:21:11 89° NNW 17:23:21 10° E
Delta 2 Rocket 3.3 17:19:07 10° W 17:22:40 62° N 17:26:00 10° ENE
ATLAS 5 CENTAUR R/B 1.6 17:19:37 10° S 17:23:26 47° ESE 17:27:31 10° NE
Cosmos 2285 Rocket 4.0 17:19:28 10° NNW 17:25:48 84° ENE 17:32:05 10° SSE
OAO 2 Rocket 3.4 17:22:40 10° WSW 17:27:57 84° SSE 17:33:17 10° ENE
Cosmos 1602 Rocket 4.1 17:24:04 10° SSE 17:28:07 38° E 17:32:14 10° NNE
Cosmos 1726 Rocket 4.3 17:24:22 10° NNW 17:28:44 58° W 17:33:06 10° S
DMSP B5D2-2 4.0 17:23:40 10° NNE 17:28:52 71° ESE 17:34:02 10° S
MOS 1 Rocket 4.2 17:32:03 10° N 17:36:48 58° WNW 17:41:49 10° SSW
Cosmos 1125 Rocket 4.1 17:32:32 10° N 17:37:29 41° ENE 17:41:59 12° SE
H-2A R/B 3.3 17:34:56 10° S 17:40:05 45° W 17:45:18 10° NNW
CZ-2C R/B 3.8 17:42:40 10° NNE 17:47:28 89° ESE 17:52:13 10° SSW
SPOT 3 Rocket 3.7 17:43:03 10° SSE 17:48:09 60° ENE 17:53:17 10° N
Cosmos 2298 Rocket 4.1 17:44:32 10° NNW 17:49:52 82° WSW 17:55:11 10° SSE
SL-08 R/B 4.5 17:44:45 10° S 17:51:00 79° E 17:57:13 10° N
MONITOR-E 4.4 17:49:00 10° S 17:51:24 49° W 17:53:49 10° NNW
Resurs 01 Rocket 2.1 17:54:02 17° SE 17:57:12 45° ENE 18:01:24 10° N
NOSS 3-3 (A) 4.3 17:53:06 10° S 17:58:13 37° ESE 18:03:45 10° NE
NOSS 3-3 (C) 4.3 17:53:13 10° S 17:58:20 37° ESE 18:03:51 10° NE
Geosat 4.3 17:57:07 17° SE 18:00:45 52° ENE 18:05:38 10° NNW
Cosmos 2322 Rocket 3.6 17:55:58 10° SW 18:01:12 40° WNW 18:06:29 10° N
Meteor 1-21 Rocket 4.3 17:57:48 10° S 18:03:41 80° E 18:09:37 10° N
Cosmos 1300 4.4 18:02:08 10° NNW 18:05:33 32° W 18:08:57 10° SSW
Cosmos 783 Rocket 4.4 18:05:39 10° S 18:10:53 77° ESE 18:16:07 10° NNE
SL-24 R/B - RUBIN 2 4.3 18:05:29 10° SSW 18:11:12 85° ESE 18:17:38 10° NNE
Cosmos 1758 Rocket 3.6 18:10:05 15° S 18:13:42 62° E 18:18:09 10° NNE
USA 245 4.3 18:17:20 23° E 18:17:46 23° ENE 18:20:46 10° NNE
Cosmos 1328 3.8 18:18:50 27° SSE 18:20:44 57° E 18:24:38 10° NNE
COSMOS 2428 3.0 18:19:57 19° SSE 18:23:40 43° ESE 18:29:00 10° NE
Cosmos 1745 Rocket 4.1 18:17:37 10° S 18:23:46 78° W 18:30:03 10° N
Cosmos 1455 2.2 18:20:37 10° N 18:24:26 63° E 18:25:46 37° SSE
Cosmos 2322 3.6 18:20:46 10° SSW 18:26:28 83° ESE 18:32:13 10° NNE
MetOp-B 4.2 18:25:30 27° SE 18:28:20 62° ENE 18:33:36 10° N
DELTA 2 R/B (1) 3.5 18:25:30 10° WSW 18:31:04 80° SSE 18:36:40 10° ENE
Cosmos 1703 3.2 18:29:36 24° S 18:31:49 85° W 18:35:43 10° N
Cosmos 1844 4.4 18:26:35 10° N 18:31:56 39° ENE 18:34:07 28° ESE
OAO 3 Rocket 3.2 18:27:49 10° WNW 18:32:44 88° NNE 18:35:05 32° E
Cosmos 773 Rocket 3.9 18:29:17 10° SSW 18:34:33 82° ESE 18:39:52 10° NNE
Cosmos 2237 Rocket 3.8 18:36:08 17° E 18:36:08 17° E 18:38:47 10° ENE
Cosmos 2219 Rocket 2.1 18:30:58 14° S 18:35:47 64° ESE 18:41:19 10° NNE
Cosmos 1953 Rocket 3.5 18:35:48 41° SSE 18:37:00 57° E 18:41:14 10° NNE
Cosmos 2263 Rocket 4.0 18:33:03 10° NW 18:37:30 25° WSW 18:41:57 10° SSW
ERS-1 Rocket 4.0 18:36:48 26° E 18:37:59 29° ENE 18:42:17 10° NNE
Cosmos 2333 4.2 18:32:45 10° SSW 18:38:22 80° WNW 18:44:04 10° NNE
Cosmos 2360 Rocket 3.6 18:33:15 10° SW 18:38:28 38° WNW 18:43:43 10° N
USA 215 3.1 18:32:56 10° NE 18:39:30 82° SE 18:46:02 10° SW
BREEZE M DEB (TANK) 3.1 18:37:31 10° SSW 18:40:50 61° SE 18:51:30 10° NE
SPOT 5 4.0 18:43:58 27° E 18:44:49 29° ENE 18:49:01 10° NNE
Cosmos 1461 4.5 18:41:17 10° NW 18:45:32 33° WSW 18:47:49 21° SSW
ATLAS CENTAUR R/B 3.6 18:47:16 10° NNE 18:48:22 11° NE 18:48:36 11° NE
Landsat 7 3.8 18:47:15 45° SE 18:48:36 70° ENE 18:53:20 10° N
Atlas Centaur 2 2.4 18:43:11 10° W 18:48:54 67° S 18:52:05 33° ESE
Cosmos 2333 Rocket 2.1 18:43:40 10° SSW 18:49:20 88° WNW 18:55:04 10° NNE
Cosmos 1825 Rocket 4.1 18:49:13 20° SSW 18:52:04 56° W 18:56:27 10° N
NOSS 0 Rocket 4.2 18:54:30 40° SE 18:55:17 42° ESE 19:01:01 10° NE
H-2A ROCKET BODY 3.6 18:50:32 10° W 18:55:44 54° S 19:06:44 24° ESE
ATLAS CENTAUR R/B 4.1 18:56:22 10° W 18:58:35 16° SW 18:59:12 16° SSW
Spot 2 Rocket 3.5 18:59:14 45° S 19:00:51 81° WSW 19:05:58 10° NNW
Delta 2 Rocket 3.5 19:01:38 10° WNW 19:04:23 52° NW 19:04:23 52° NW
BREEZE-M DEB (TANK) 3.4 19:02:31 10° NW 19:05:53 60° NE 19:06:37 51° E
IGS 5A 3.6 19:06:00 60° SW 19:06:30 67° WSW 19:10:39 10° NNW
Cosmos 1709 Rocket 4.4 19:04:01 18° SSW 19:08:44 62° W 19:15:02 10° N
USA 81 3.9 19:08:09 53° S 19:09:25 84° E 19:14:43 10° N
CARTOSAT-1 3.6 19:12:34 62° ENE 19:12:34 62° ENE 19:16:39 10° N
OAO 2 Rocket 3.5 19:07:37 10° W 19:12:56 74° N 19:14:42 42° ENE
Cosmos 1315 Rocket 3.7 19:10:55 10° N 19:14:04 40° NE 19:14:04 40° NE
Cosmos 2278 Rocket 3.7 19:11:50 10° N 19:16:12 22° ENE 19:17:00 22° ENE
Cosmos 1680 Rocket 4.4 19:19:13 34° ENE 19:19:13 34° ENE 19:22:56 10° NE
Cosmos 1844 Rocket 2.9 19:13:13 10° NNW 19:18:42 63° WSW 19:19:57 49° SSW
SL-16 R/B 4.4 19:22:54 11° ENE 19:22:54 11° ENE 19:23:06 10° ENE
SPOT 1/Viking Rocket 3.7 19:20:05 54° SSW 19:21:05 68° WSW 19:26:14 10° NNW
Cosmos 2184 Rocket 3.9 19:24:07 57° SE 19:24:55 62° E 19:31:06 10° NNE
In-Cosmos 22 Rocket 4.3 19:32:34 54° ENE 19:32:34 54° ENE 19:37:11 10° NNE
Resurs 01 Rocket 4.2 19:31:58 10° WSW 19:33:51 12° W 19:35:44 10° WNW
Terra 2.0 19:36:04 64° NE 19:36:04 64° NE 19:40:22 10° N
Cosmos 923 Rocket 3.9 19:36:06 77° ENE 19:36:06 77° ENE 19:41:08 10° NNE
Cosmos 2221 3.6 19:35:23 10° N 19:38:23 38° NNE 19:38:23 38° NNE
Cosmos 2058 4.3 19:51:27 33° NNE 19:51:27 33° NNE 19:53:49 10° N
Cosmos 2344 3.4 19:55:09 57° S 19:56:51 78° ESE 20:04:26 10° NNE
Meteor 2-17 Rocket 4.3 19:59:28 75° SW 19:59:51 78° W 20:05:56 10° N
Cosmos 1980 3.9 20:00:03 63° W 20:00:30 66° WNW 20:06:07 10° NNE
Cosmos 2154 Rocket 3.8 20:05:01 84° ENE 20:05:01 84° ENE 20:11:09 10° N
Nadezhda 3 Rocket 4.1 20:04:34 10° N 20:10:35 64° ENE 20:10:35 64° ENE
ATLAS 2AS CENTAUR R/B 3.6 20:07:07 10° NNW 20:13:53 37° NE 20:15:15 34° ENE
DELTA 2 R/B (1) 4.4 20:12:23 10° W 20:17:47 48° N 20:20:29 27° NE
Cosmos 2237 Rocket 2.9 20:17:54 46° W 20:18:35 49° WNW 20:24:06 10° N
Thor Agena Rocket 4.3 20:17:19 10° NNE 20:20:54 47° NNE 20:20:54 47° NNE
ATLAS CENTAUR R/B 3.9 20:23:59 10° NW 20:24:46 15° NW 20:24:46 15° NW
Atlas Centaur 2 3.9 20:31:51 10° W 20:34:38 26° WSW 20:34:38 26° WSW
USA 267 3.6 20:49:19 54° ENE 20:50:00 56° NE 20:56:23 10° NW
Cosmos 2056 Rocket 4.5 20:48:17 10° NNW 20:52:07 46° N 20:52:07 46° N
MOS 1-B Rocket 4.4 20:48:47 10° N 20:55:56 62° WNW 20:56:07 62° W
Cosmos 2278 Rocket 3.4 20:55:05 10° NW 20:58:50 35° WNW 20:58:50 35° WNW
SL-16 R/B 3.0 21:04:44 49° NNW 21:04:44 49° NNW 21:09:11 10° NNE
Cosmos 1943 Rocket 4.0 20:59:46 10° N 21:04:00 22° ENE 21:04:00 22° ENE
NOSS 3-4 (A) 4.2 21:30:00 10° NW 21:36:04 55° W 21:36:04 55° W
NOSS 3-4 (C) 4.2 21:30:06 10° NW 21:36:11 56° W 21:36:11 56° W
Cosmos 2369 Rocket 3.4 21:47:12 10° N 21:51:33 36° NE 21:51:33 36° NE
COSMOS 2455 3.5 21:53:51 10° NNW 21:58:41 53° NNE 21:58:41 53° NNE
ATLAS 2AS CENTAUR R/B 3.9 21:58:13 10° NW 22:02:39 32° WNW 22:02:39 32° WNW
CZ-2D R/B 4.0 22:13:08 10° NE 22:16:01 21° ENE 22:16:01 21° ENE
SL-16 R/B 4.3 22:17:47 19° E 22:19:54 23° ENE 22:24:37 10° NNE
CZ-4C R/B 3.7 22:19:17 10° NNW 22:26:35 48° NE 22:30:40 28° ESE
Cosmos 1934 Rocket 4.2 22:33:30 64° N 22:33:30 64° N 22:38:43 10° N
Cosmos 1943 4.2 22:41:16 38° NW 22:41:16 38° NW 22:45:41 10° N
Iridium 4 Rocket 4.2 22:45:51 57° NE 22:45:51 57° NE 22:50:51 10° N
Cosmos 1943 Rocket 3.7 22:42:42 10° NW 22:45:29 27° NW 22:45:29 27° NW
Lacrosse 5 rocket 3.9 22:58:25 10° NNW 22:59:14 15° NNW 22:59:14 15° NNW
Cosmos 1238 Rocket 3.9 23:03:27 74° NNE 23:03:27 74° NNE 23:08:34 10° N
SeaSat 1 3.2 23:04:22 10° NNE 23:08:09 48° NNW 23:08:09 48° NNW
Cosmos 972 Rocket 4.3 23:16:21 10° N 23:22:21 68° ENE 23:22:33 68° E
Resurs 1-4 Rocket 2.3 23:19:04 10° N 23:23:48 67° NNW 23:23:48 67° NNW
Centaur D-1A AC-31 4.2 13:56:55 10° SSW 23:24:52 62° SSW 23:33:08 10° SE
Cosmos 2100 Rocket 4.2 23:25:48 58° SE 23:26:39 64° E 23:32:52 10° NNE
ADEOS II 2.7 23:28:53 10° NNE 23:33:56 46° E 23:34:19 45° ESE
Cosmos 1802 Rocket 4.5 23:34:10 45° SE 23:35:40 56° E 23:41:53 10° NNE
Lacrosse 5 2.4 23:36:20 52° NW 23:36:20 52° NW 23:41:01 10° NNE
Cosmos 2369 Rocket 4.2 23:31:50 10° NW 23:33:18 16° WNW 23:33:18 16° WNW
IRS-1D 3.5 23:36:25 10° NNE 23:41:15 69° E 23:41:15 69° E
DELTA 2 R/B (1) 3.4 23:51:38 81° SSW 23:51:38 81° SSW 23:57:12 10° ESE
AQUA 4.2 23:47:23 10° N 23:51:35 55° NW 23:51:35 55° NW
Okean 1-7 3.6 23:48:21 10° N 23:52:40 53° E 23:52:53 52° E
